Date,TemperatureHighF,TemperatureAvgF,TemperatureLowF,DewpointHighF,DewpointAvgF,DewpointLowF,HumidityHigh,HumidityAvg,HumidityLow,PressureMaxIn,PressureMinIn,WindSpeedMaxMPH,WindSpeedAvgMPH,GustSpeedMaxMPH,PrecipitationSumIn
2012-12-1,48.3,46.0,43.4,46.1,43.7,40.8,94,92,89,30.45,30.36,12,8,16,0.00
2012-12-2,53.0,45.9,39.8,49.1,44.0,39.0,97,93,84,30.38,30.11,6,2,7,0.01
2012-12-3,46.7,45.8,44.9,45.9,44.6,43.8,97,96,95,30.24,30.22,1,0,1,0.00
2012-12-4,59.7,52.4,44.6,54.9,50.8,43.5,97,94,84,30.25,29.98,6,2,9,0.00
2012-12-5,57.9,50.9,36.1,52.8,40.5,22.5,95,69,49,30.23,29.89,13,6,21,0.01
2012-12-6,38.9,33.8,29.8,28.9,24.8,21.2,89,70,55,30.34,30.21,10,3,15,0.00
2012-12-7,53.9,42.5,31.0,48.8,39.0,27.3,92,87,79,30.27,29.99,4,1,7,0.01
2012-12-8,53.3,50.2,47.1,51.3,49.2,46.0,98,96,92,29.99,29.86,8,1,9,1.13
2012-12-9,53.5,48.3,44.6,52.9,46.8,40.7,98,95,85,30.21,29.96,10,5,15,0.51
2012-12-10,58.9,55.4,52.1,58.3,54.9,51.6,99,98,98,29.96,29.54,4,1,8,0.44
2012-12-11,59.1,46.7,41.3,58.8,41.2,34.7,99,82,64,30.17,29.55,13,4,16,0.08
2012-12-12,43.7,40.3,36.8,34.8,30.0,25.8,79,67,50,30.41,30.16,7,3,10,0.00
2012-12-13,43.9,38.6,31.3,32.2,30.4,28.1,91,73,54,30.43,30.30,10,4,12,0.00
2012-12-14,50.4,39.7,31.2,31.5,29.2,26.9,92,68,44,30.30,30.14,5,2,8,0.00
2012-12-15,47.8,42.5,33.2,41.9,34.8,28.7,88,74,64,30.29,30.16,8,4,9,0.00
2012-12-16,51.9,49.9,47.8,50.0,47.4,42.1,97,91,79,30.16,29.85,8,5,11,0.36
2012-12-17,51.0,46.7,43.8,50.5,45.8,42.7,98,97,96,29.86,29.58,12,7,13,0.13
2012-12-18,58.4,51.5,42.5,54.1,46.7,35.6,98,84,66,29.63,29.44,12,5,24,0.44
2012-12-19,49.3,43.1,39.2,35.7,31.5,29.3,77,64,49,30.10,29.63,14,8,18,0.00
2012-12-20,50.9,41.7,33.6,46.9,34.8,27.7,86,76,67,30.19,29.74,12,6,15,0.00
2012-12-21,56.1,46.1,36.3,54.7,40.0,28.4,98,80,65,29.74,29.12,30,11,33,1.17
2012-12-22,41.6,38.2,35.2,31.6,26.5,22.7,85,63,47,29.85,29.35,17,9,29,0.00
2012-12-23,42.9,36.2,30.4,28.1,25.0,22.2,76,64,46,29.97,29.85,6,2,8,0.00
2012-12-24,43.2,37.1,30.9,41.9,29.5,23.4,95,74,57,30.07,29.88,8,3,10,0.17
2012-12-25,44.4,39.8,34.3,43.3,35.4,29.2,97,85,72,30.22,29.85,11,6,13,0.01
2012-12-26,52.1,40.7,33.0,51.6,37.6,27.8,98,89,79,30.24,29.29,42,15,44,1.12
2012-12-27,52.7,38.0,31.3,52.2,32.4,22.8,98,81,68,29.84,29.22,20,12,26,0.59
2012-12-28,38.9,33.5,29.6,28.1,25.2,21.7,85,72,62,30.07,29.84,12,6,18,0.00
2012-12-29,42.3,35.2,30.0,39.8,31.9,25.1,97,88,79,30.02,29.45,11,4,16,0.33
2012-12-30,37.5,33.2,29.8,29.5,21.0,14.4,87,62,49,30.19,29.58,18,11,32,0.00
2012-12-31,40.6,33.8,27.2,29.4,23.2,15.3,76,65,57,30.21,29.89,6,2,9,0.00